This is the latest recevied weather packets stored in our database for station/object KA8DUX-2. If no packets are shown the sender has not sent any weather packets the latest 10 day(s).
| Time | Temp. | Humidity | Pressure | Rain* | Wind** | Luminosity | Snow |
|---|---|---|---|---|---|---|---|
| 1778195101 | 12.22° C | 46% | 1009.2 hPa | 0 mm | - | 101 W/m² | - |
| 1778194796 | 12.22° C | 48% | 1009.6 hPa | 0 mm | - | 96 W/m² | - |
| 1778194493 | 11.67° C | 46% | 1009.9 hPa | 0 mm | - | 88 W/m² | - |
| 1778194189 | 11.67° C | 47% | 1009.9 hPa | 0 mm | - | 101 W/m² | - |
| 1778193885 | 12.22° C | 50% | 1009.9 hPa | 0 mm | - | 95 W/m² | - |
| 1778193582 | 12.22° C | 44% | 1009.9 hPa | 0 mm | - | 96 W/m² | - |
| 1778193278 | 12.22° C | 44% | 1009.7 hPa | 0 mm | - | 106 W/m² | - |
| 1778192975 | 12.22° C | 44% | 1009.8 hPa | 0 mm | - | 83 W/m² | - |
| 1778192672 | 12.22° C | 46% | 1009.9 hPa | 0 mm | - | 83 W/m² | - |
| 1778192368 | 12.22° C | 44% | 1009.9 hPa | 0 mm | - | 95 W/m² | - |
| 1778192065 | 12.22° C | 45% | 1009.9 hPa | 0 mm | - | 65 W/m² | - |
| 1778191761 | 12.22° C | 46% | 1009.9 hPa | 0 mm | - | 83 W/m² | - |
| 1778191459 | 12.78° C | 44% | 1009.9 hPa | 0 mm | - | 115 W/m² | - |
| 1778191156 | 12.78° C | 43% | 1009.9 hPa | 0 mm | - | 145 W/m² | - |
| 1778190852 | 13.33° C | 42% | 1009.8 hPa | 0 mm | - | 125 W/m² | - |
| 1778190549 | 13.33° C | 41% | 1010 hPa | 0 mm | - | 288 W/m² | - |
| 1778190247 | 13.33° C | 41% | 1010 hPa | 0 mm | - | 163 W/m² | - |
| 1778189942 | 12.78° C | 44% | 1010 hPa | 0 mm | - | 203 W/m² | - |
| 1778189639 | 13.33° C | 43% | 1009.8 hPa | 0 mm | - | 170 W/m² | - |
| 1778189336 | 13.33° C | 41% | 1010 hPa | 0 mm | - | 209 W/m² | - |
| 1778189032 | 13.89° C | 41% | 1009.9 hPa | 0 mm | - | 127 W/m² | - |
| 1778188729 | 13.33° C | 42% | 1010 hPa | 0 mm | - | 244 W/m² | - |
| 1778188425 | 13.89° C | 42% | 1010 hPa | 0 mm | - | 199 W/m² | - |
| 1778188122 | 13.89° C | 40% | 1010 hPa | 0 mm | - | 312 W/m² | - |
| 1778187819 | 15° C | 41% | 1010.2 hPa | 0 mm | - | 448 W/m² | - |
* Rain latest hour (hover to see other rain measurements)
** Current wind speed in m/s (hover to see current wind gust speed)